{"data":{"norad_id":63918,"epoch":"2026-05-25T04:28:11.530848Z","epoch_age_seconds":49187,"freshness":"FRESH","line1":"1 63918U 25096A   26145.18624457  .00000079  00000+0  32834-4 0  9993","line2":"2 63918  85.9969 198.2714 0002455 105.2084 254.9371 14.12442927 53323","mean_motion":14.12442927,"eccentricity":0.0002455,"inclination_deg":85.9969,"raan_deg":198.2714,"arg_perigee_deg":105.2084,"mean_anomaly_deg":254.9371,"bstar":3.2834e-5,"rev_number":5332,"period_min":101.95102205358,"perigee_km":849.24933329919,"apogee_km":852.79885139553,"semimajor_km":7229.1610923474,"source":"CELESTRAK","updated_at":"2026-05-25T13:38:04.084424Z"}}